This is the latest recevied weather packets stored in our database for station/object WO5CID. If no packets are shown the sender has not sent any weather packets the latest 10 day(s).
| Time | Temp. | Humidity | Pressure | Rain* | Wind** | Luminosity | Snow |
|---|---|---|---|---|---|---|---|
| 1778190765 | 33.89° C | 31% | 1011.7 hPa | 0 mm | - | 316 W/m² | - |
| 1778190461 | 33.33° C | 31% | 1011.8 hPa | 0 mm | - | 345 W/m² | - |
| 1778190159 | 33.33° C | 32% | 1012 hPa | 0 mm | - | 384 W/m² | - |
| 1778189854 | 33.33° C | 32% | 1012 hPa | 0 mm | - | 359 W/m² | - |
| 1778189551 | 33.89° C | 30% | 1012 hPa | 0 mm | - | 199 W/m² | - |
| 1778189247 | 33.89° C | 30% | 1012 hPa | 0 mm | - | 291 W/m² | - |
| 1778188944 | 33.89° C | 30% | 1011.9 hPa | 0 mm | - | 332 W/m² | - |
| 1778188641 | 33.89° C | 29% | 1011.9 hPa | 0 mm | - | 266 W/m² | - |
| 1778188336 | 33.89° C | 31% | 1012 hPa | 0 mm | - | 356 W/m² | - |
| 1778188034 | 33.89° C | 30% | 1012.1 hPa | 0 mm | - | 504 W/m² | - |
| 1778187731 | 34.44° C | 30% | 1012.2 hPa | 0 mm | - | 382 W/m² | - |
| 1778187427 | 34.44° C | 29% | 1012.2 hPa | 0 mm | - | 369 W/m² | - |
| 1778187124 | 34.44° C | 30% | 1012.3 hPa | 0 mm | - | 381 W/m² | - |
| 1778186820 | 34.44° C | 29% | 1012.5 hPa | 0 mm | - | 463 W/m² | - |
| 1778186518 | 33.89° C | 29% | 1012.5 hPa | 0 mm | - | 482 W/m² | - |
| 1778186216 | 34.44° C | 29% | 1012.4 hPa | 0 mm | - | 425 W/m² | - |
| 1778185913 | 34.44° C | 29% | 1012.5 hPa | 0 mm | - | 416 W/m² | - |
| 1778185608 | 34.44° C | 30% | 1012.6 hPa | 0 mm | - | 403 W/m² | - |
| 1778185304 | 35° C | 30% | 1012.8 hPa | 0 mm | - | 629 W/m² | - |
| 1778185000 | 35° C | 30% | 1012.9 hPa | 0 mm | - | 648 W/m² | - |
| 1778184697 | 35° C | 32% | 1012.8 hPa | 0 mm | - | 664 W/m² | - |
| 1778184393 | 35.56° C | 30% | 1012.8 hPa | 0 mm | - | 685 W/m² | - |
| 1778184089 | 35.56° C | 32% | 1012.7 hPa | 0 mm | - | 695 W/m² | - |
| 1778183786 | 35° C | 34% | 1012.6 hPa | 0 mm | - | 702 W/m² | - |
| 1778183483 | 35° C | 33% | 1013.2 hPa | 0 mm | - | 738 W/m² | - |
* Rain latest hour (hover to see other rain measurements)
** Current wind speed in m/s (hover to see current wind gust speed)